SCP
-0 -0 -0 -0 -0 -0 -0 -0 -0 -0 -0 -0 -0 -0 -0 -0 -0 0 0 0 0 -0 0 0 0 -0 0 0 0 0 -0 -0 0 0 0 0 0 0 0 0 0 0 0 -0 -0
-0 -0 -0 -0 -0 -0 -0 -0 -0 -0 -0 -0 -0 -0 0 -0 0 0 0 0 -0 -0 -0 0 0 -0 0 0 0 0 0 0 0 0 0 0 0 0 0 0 0 0 -0 -0 -0
0 0 -0 -0 -0 -0 -0 -0 -0 -0 -0 -0 -0 -0 0 0 0 0 0 0 -0 0 0 0 0 0 0 0 0 0 0 0 0 0 0 0 0 0 -0 0 0 0 -0 -0 -0
-0 -0 -0 -0 -0 -0 -0 -0 -0 -0 -0 -0 -0 -0 0 0 0 0 0 0 0 0 0 0 0 0 0 0 0 0 0 0 0 -0 0 -0 0 0 0 0 0 -0 -0 -0 -0
-0 -0 -0 -0 -0 -0 -0 -0 -0 -0 -0 -0 0 0 0 0 0 0 0 0 0 0 0 0 0 0 0 0 0 0 0 0 0 -0 0 0 -0 0 0 0 -0 -0 -0 -0 -0
-0 -0 -0 -0 -0 -0 -0 -0 -0 -0 -0 0 -0 0 0 0 0 0 0 0 0 0 0 0 0 0 0 0 0 0 0 0 0 0 0 0 -0 -0 -0 -0 -0 -0 -0 -0 -0
0 0 0 -0 -0 -0 -0 -0 -0 0 0 -0 -0 -0 0 0 0 0 0 0 0 0 0 0 0 0 0 0 0 0 0 0 0 0 0 -0 0 -0 -0 -0 -0 -0 -0 -0 -0
0 0 0 0 -0 -0 -0 -0 0 0 0 -0 -0 0 0 0 0 0 0 0 0 0 0 0 0 0 0 0 0 0 0 0 0 0 0 -0 0 0 -0 -0 -0 -0 -0 -0 -0
0 0 0 0 0 0 0 0 0 0 0 -0 0 0 0 0 0 0 0 0 0 0 0 0 0 0 0 0 0 0 0 0 0 -0 0 0 0 -0 -0 -0 -0 -0 -0 -0 -0
0 0 0 0 0 0 0 -0 0 0 0 0 0 0 0 0 0 0 0 0 0 0 0 0 0 0 0 0 0 0 0 0 -0 0 0 0 0 0 -0 -0 -0 -0 -0 -0 -0
0 0 0 0 0 0 0 0 0 0 0 0 0 0 0 0 0 0 0 0 0 0 0 0 0 0 0 0 0 0 0 0 0 0 0 0 0 0 0 -0 -0 -0 -0 -0 -0
0 0 0 0 0 0 0 0 0 0 0 0 0 0 0 0 0 0 0 0 0 0 0 0 0 0 0 0 0 0 0 0 0 0 0 0 0 0 0 0 -0 -0 -0 -0 -0
-0 0 0 0 0 0 0 0 0 0 0 0 0 0 0 0 0 0 0 0 0 0 0 0 0 0 0 0 0 0 0 0 0 0 0 0 0 0 0 0 -0 -0 -0 -0 -0
0 0 0 0 0 0 0 0 0 0 0 0 0 0 0 0 0 0 0 0 0 0 0 0 0 0 0 0 0 0 0 0 0 0 0 0 0 0 0 0 -0 0 -0 -0 -0
0 0 0 0 0 0 0 0 0 0 0 0 0 0 0 0 0 0 -0 0 0 0 0 0 0 0 0 0 0 0 0 0 0 0 0 0 0 0 0 0 -0 -0 -0 -0 -0
0 0 -0 0 0 -0 -0 -0 0 0 0 0 0 0 0 0 0 0 0 0 0 0 0 0 0 0 0 0 0 0 0 0 0 0 0 0 0 0 0 0 -0 0 -0 -0 -0
0 0 0 0 0 0 -0 0 0 0 0 0 0 0 0 0 0 0 0 0 0 0 0 0 0 0 0 0 0 0 0 0 0 0 0 0 0 0 0 0 0 0 -0 -0 -0
0 -0 0 0 -0 0 0 0 0 0 0 0 0 0 0 0 0 0 0 0 0 0 0 0 0 0 0 0 0 0 0 0 0 0 0 0 0 0 0 0 0 0 0 0 -0
0 0 0 0 -0 -0 0 0 0 0 0 0 0 0 0 0 0 0 0 0 0 0 0 0 0 0 0 0 0 0 0 0 0 0 0 0 0 0 0 0 0 0 0 0 -0
0 0 0 -0 -0 -0 0 0 0 0 0 0 0 0 0 0 0 0 0 0 0 0 0 0 0 0 0 0 0 0 0 0 0 0 0 0 0 0 0 0 0 0 0 0 0
0 0 0 -0 -0 0 0 0 0 0 0 0 0 0 0 0 0 0 0 0 0 0 0 0 0 0 0 0 0 0 0 0 0 0 0 0 0 0 0 0 0 0 0 0 0
0 0 0 -0 0 0 0 0 0 0 0 0 0 0 0 0 0 0 0 0 0 0 0 0 0 0 0 0 0 0 0 0 0 0 0 0 0 0 0 1 0 0 0 0 0
0 0 0 0 0 0 0 0 0 0 0 0 0 0 0 0 0 0 0 0 0 0 0 0 0 0 0 0 0 0 0 0 0 0 0 0 0 0 1 1 1 1 1 0 0
0 0 0 0 0 0 0 0 0 0 0 0 0 0 0 0 0 0 0 0 0 0 0 0 0 0 0 0 0 0 0 0 0 0 0 0 0 0 1 1 1 1 1 1 1
0 0 0 0 0 0 0 0 0 0 0 0 0 0 0 0 0 0 0 0 0 0 0 0 0 0 0 0 0 0 0 0 0 0 0 0 0 0 1 0 0 1 1 1 1
0 0 0 0 0 0 0 0 0 0 0 0 0 0 0 0 0 0 0 0 0 0 0 0 0 0 0 0 0 0 0 0 0 0 0 0 0 1 1 0 0 0 0 0 0
0 0 0 0 0 0 0 0 0 0 0 0 0 0 0 0 0 0 0 0 0 0 0 0 0 0 0 0 0 0 0 0 0 0 0 0 1 1 0 0 0 0 0 0 0
Wind_Speed_500mb
37 35 34 34 34 32 31 28 25 26 25 21 18 17 18 19 18 19 17 9 23 26 26 25 28 19 6 4 3 3 4 8 10 15 12 21 10 12 7 29 10 6 22 40 51
42 40 39 38 37 34 31 27 26 23 24 24 18 16 17 19 17 18 13 14 27 31 28 29 29 18 3 6 5 4 3 5 8 13 19 25 18 24 12 30 11 27 35 56 53
46 44 44 44 41 37 35 30 24 22 24 23 18 15 15 14 9 3 7 20 35 29 19 25 23 12 5 4 3 2 4 1 8 12 24 27 20 20 26 19 14 34 51 51 46
45 43 45 47 45 39 35 29 24 23 22 21 15 14 13 5 5 3 12 26 40 30 28 27 24 9 3 1 5 3 4 4 3 11 28 23 21 16 19 6 24 41 58 52 46
46 43 42 42 43 39 36 33 24 22 22 19 14 12 10 5 3 10 23 33 38 32 26 23 30 13 6 4 4 5 5 9 8 18 14 19 19 7 16 13 30 47 56 51 43
48 46 43 40 38 35 33 31 26 27 23 19 13 9 7 5 10 13 25 29 26 26 25 26 21 18 5 5 7 6 11 18 15 24 14 16 12 14 15 34 38 53 55 48 44
51 47 44 42 36 28 26 24 28 22 15 12 10 9 10 6 11 21 23 18 11 10 9 28 19 13 9 5 2 4 7 12 27 21 13 16 12 19 31 40 45 49 53 46 44
50 49 47 43 40 29 20 23 19 17 14 11 6 6 5 14 19 22 24 22 14 10 6 20 22 8 5 4 1 6 4 2 5 16 12 25 2 18 38 44 48 50 50 46 44
50 48 45 41 35 21 20 22 13 8 10 16 5 3 2 13 12 16 19 14 12 10 13 16 17 7 9 6 5 2 8 14 1 20 5 24 9 16 41 41 45 49 50 49 44
48 46 42 39 33 15 16 16 10 6 7 9 5 2 7 7 9 14 20 16 6 12 14 8 4 6 7 12 15 7 10 8 11 4 13 24 13 13 38 42 43 47 48 49 48
49 46 44 38 28 7 13 8 8 2 8 3 6 8 11 7 14 15 18 20 13 9 10 4 12 21 17 10 13 11 7 5 3 3 4 21 22 17 32 34 37 44 46 50 52
52 49 44 39 21 1 6 6 12 10 8 6 9 16 12 5 6 13 22 14 7 12 11 10 20 7 5 10 13 12 8 4 7 1 3 4 21 18 31 38 41 48 51 51 45
50 47 42 38 11 4 6 11 16 12 4 6 2 5 3 7 3 13 23 12 9 9 8 15 4 15 8 6 11 8 11 7 3 4 3 2 7 8 20 24 30 39 44 44 51
48 45 39 30 3 5 7 10 16 9 3 2 5 5 7 6 1 9 21 10 5 11 10 9 7 11 13 9 7 17 13 10 7 15 12 6 10 7 18 27 29 41 44 47 51
44 44 38 27 7 10 7 9 11 3 4 4 6 7 13 6 3 8 18 10 11 13 8 7 10 14 9 9 15 9 13 5 5 2 18 16 11 4 9 25 37 49 53 53 52
42 45 37 20 3 16 7 8 2 5 6 4 4 7 9 4 5 8 7 8 9 10 3 4 2 5 11 7 21 6 12 7 5 5 15 19 18 14 12 22 34 44 55 58 55
43 38 26 7 7 15 4 3 4 1 5 5 4 4 11 7 7 6 8 6 2 7 6 2 7 4 6 7 8 11 14 11 14 13 18 7 17 19 14 25 29 33 56 61 61
41 31 7 5 11 5 2 2 3 2 4 3 2 10 8 8 9 11 8 7 11 4 5 6 9 13 11 14 11 17 21 12 20 21 20 8 17 17 12 16 41 36 29 41 53
36 11 10 12 9 2 3 3 3 1 5 2 3 9 6 5 5 7 11 7 7 8 3 4 2 3 2 2 7 11 15 9 3 1 9 14 13 23 16 19 11 27 34 42 50
31 10 9 6 5 7 2 4 4 4 5 3 5 4 5 9 5 6 6 9 10 8 9 6 3 4 2 4 9 6 13 12 6 13 13 9 12 23 17 9 3 4 23 37 42
12 8 5 5 6 2 4 3 4 12 4 10 4 6 8 5 8 6 7 5 11 8 5 3 5 6 5 6 5 5 7 2 5 6 16 13 12 5 3 12 17 16 16 23 38
7 5 2 4 2 3 3 5 6 5 11 8 9 12 8 9 9 7 7 5 25 6 4 6 3 4 5 5 5 3 6 3 13 15 4 8 11 7 11 13 19 19 16 12 14
12 2 5 4 2 3 2 8 11 4 11 6 6 8 7 6 5 4 5 7 24 9 6 3 2 6 7 9 6 6 6 6 2 2 13 17 12 7 10 19 25 26 26 20 11
6 0 3 3 5 3 8 5 11 12 10 13 7 5 6 5 11 7 5 7 14 16 17 4 5 4 9 7 6 4 1 5 5 6 5 11 4 13 14 17 23 28 28 28 29
4 2 2 1 3 1 1 4 12 7 8 10 8 9 5 5 4 5 4 2 8 20 8 5 3 5 3 4 6 9 14 11 11 5 9 6 12 16 11 13 20 21 23 29 30
2 3 2 1 5 3 3 5 11 8 3 5 10 6 6 6 3 6 3 6 7 12 6 7 2 2 3 5 7 14 18 16 6 5 10 12 11 14 17 16 23 25 25 26 28
6 5 3 1 3 6 6 7 13 19 13 11 25 12 12 10 10 10 8 9 6 6 6 4 2 1 7 7 11 15 8 8 4 4 2 8 7 21 10 20 22 21 22 22 24
Wind_Direction_500mb
358 355 351 351 350 352 347 339 332 325 325 321 314 304 292 288 288 280 274 230 188 185 181 172 159 159 134 32 39 27 95 137 140 160 139 165 143 129 99 138 91 15 150 153 156
358 354 350 347 347 347 346 340 330 324 323 321 316 307 301 292 293 281 238 191 177 173 179 175 166 158 101 350 1 29 97 103 162 154 157 172 163 147 130 155 89 87 127 150 155
357 352 349 346 343 342 341 338 328 321 321 321 316 308 305 304 314 149 173 176 162 165 170 170 166 144 92 339 330 137 72 96 188 178 169 164 170 154 139 181 173 150 149 156 161
356 353 348 345 343 340 336 335 328 319 322 320 318 308 301 298 150 339 186 168 165 157 153 159 159 136 114 81 258 280 192 329 147 159 168 172 162 179 170 171 171 162 160 161 169
353 351 348 345 342 340 336 334 332 324 321 319 317 304 297 248 180 73 152 163 164 157 167 159 160 153 150 182 229 283 331 210 242 170 179 177 196 152 179 160 152 155 164 168 174
352 350 348 346 343 340 337 335 334 321 310 309 302 287 266 244 175 140 141 162 178 174 182 180 177 171 122 180 214 225 263 246 230 208 199 180 203 199 153 149 149 159 169 175 179
352 350 349 345 341 341 335 337 337 340 328 308 288 271 244 219 178 155 147 151 151 165 195 196 150 175 174 195 237 249 250 237 242 213 205 179 201 211 162 158 156 167 172 180 185
351 351 351 348 342 339 334 337 342 342 344 333 300 286 231 179 159 156 158 150 139 124 119 182 165 155 223 302 164 216 228 167 65 190 201 190 188 181 169 163 165 173 177 184 189
351 350 349 347 341 340 333 335 341 348 359 359 337 324 144 163 173 179 164 155 137 128 119 137 179 170 150 178 180 6 155 147 224 186 138 205 259 181 178 177 173 179 183 183 193
347 347 347 346 341 337 337 329 329 323 334 346 16 352 100 127 170 189 200 184 124 144 128 144 147 188 145 185 204 162 147 132 185 83 196 203 234 169 190 189 186 182 186 188 195
345 346 345 344 340 333 347 338 335 345 337 216 276 286 296 32 160 194 198 187 172 150 167 128 195 199 196 139 116 103 105 115 230 60 247 214 225 187 193 202 190 187 189 192 201
346 343 344 345 340 177 25 62 34 318 312 312 250 260 275 302 123 135 159 155 167 162 137 157 218 160 148 152 145 143 145 204 264 317 214 218 230 214 198 208 199 189 195 198 197
343 341 345 347 350 172 125 26 1 346 297 311 184 174 172 147 135 154 164 153 140 141 174 189 117 152 157 158 179 156 184 170 309 350 83 177 214 199 213 220 213 213 210 206 201
343 341 340 349 332 198 178 345 339 313 325 51 178 141 162 137 194 187 177 157 108 157 150 205 140 155 162 176 222 231 195 168 175 248 245 323 273 241 203 212 216 217 213 212 211
342 337 335 337 276 197 187 311 316 288 118 132 129 146 150 153 100 154 164 161 166 144 196 169 178 192 199 197 185 242 168 159 153 161 222 240 255 224 199 215 219 217 217 217 213
342 335 332 330 262 179 205 310 192 249 113 124 94 153 148 67 75 115 137 102 120 121 126 211 259 213 200 176 193 121 143 77 86 167 224 206 226 229 206 225 228 219 217 218 214
342 333 329 339 142 174 233 166 229 332 336 50 78 111 97 34 92 33 132 91 101 156 174 196 206 254 190 175 133 186 189 201 210 207 231 147 216 242 231 241 241 221 214 214 215
344 339 37 80 156 169 188 177 110 59 20 51 116 84 87 4 57 29 99 120 60 47 139 178 192 198 166 219 209 188 212 225 219 216 220 167 216 231 222 265 248 242 233 220 217
351 16 80 82 106 71 146 134 70 333 332 6 110 77 74 62 40 89 52 43 21 3 284 158 242 291 231 1 196 160 209 252 241 109 246 209 224 268 247 256 267 247 233 223 219
355 105 66 114 55 353 141 117 102 306 339 57 90 0 108 16 114 76 59 16 345 359 262 157 244 30 345 159 64 254 143 186 207 217 225 184 231 233 216 256 336 255 240 237 228
14 104 30 146 348 56 133 80 117 34 42 16 96 97 78 62 43 70 28 75 352 331 23 118 269 127 212 48 41 152 186 79 239 273 240 220 210 270 267 344 322 317 291 257 233
19 124 353 168 258 356 128 116 13 32 41 64 78 65 55 40 55 88 104 19 351 296 54 38 305 208 78 335 245 56 62 323 239 198 233 301 217 38 36 26 348 359 357 328 245
354 1 33 190 236 122 151 108 57 80 42 54 88 53 60 78 99 75 80 28 12 40 45 12 86 202 158 150 135 91 77 80 39 296 204 223 206 62 37 49 38 33 30 38 55
5 154 30 129 101 182 148 126 120 62 79 65 85 105 116 91 44 117 98 46 4 28 36 164 86 319 283 39 0 177 15 45 352 242 157 222 196 22 31 35 43 44 52 64 68
23 89 123 162 86 264 276 133 132 119 77 53 92 62 105 115 107 93 58 51 60 11 38 20 104 315 307 312 316 292 294 308 306 296 265 10 307 346 18 41 42 50 52 55 57
284 157 148 238 302 227 302 156 143 121 69 86 116 110 121 141 96 139 109 36 37 10 55 4 106 334 275 327 295 277 281 281 240 222 273 303 279 42 35 48 49 37 41 42 41
222 219 164 146 171 192 192 160 144 138 49 117 136 123 105 101 98 79 80 87 66 13 42 33 92 315 254 333 300 249 263 265 195 127 282 276 11 324 53 43 39 39 39 37 28
Wind_Speed_850mb
37 35 34 34 34 32 31 28 25 26 25 21 18 17 18 19 18 19 17 9 23 26 26 25 28 19 6 4 3 3 4 8 10 15 12 21 10 12 7 29 10 6 22 40 51
42 40 39 38 37 34 31 27 26 23 24 24 18 16 17 19 17 18 13 14 27 31 28 29 29 18 3 6 5 4 3 5 8 13 19 25 18 24 12 30 11 27 35 56 53
46 44 44 44 41 37 35 30 24 22 24 23 18 15 15 14 9 3 7 20 35 29 19 25 23 12 5 4 3 2 4 1 8 12 24 27 20 20 26 19 14 34 51 51 46
45 43 45 47 45 39 35 29 24 23 22 21 15 14 13 5 5 3 12 26 40 30 28 27 24 9 3 1 5 3 4 4 3 11 28 23 21 16 19 6 24 41 58 52 46
46 43 42 42 43 39 36 33 24 22 22 19 14 12 10 5 3 10 23 33 38 32 26 23 30 13 6 4 4 5 5 9 8 18 14 19 19 7 16 13 30 47 56 51 43
48 46 43 40 38 35 33 31 26 27 23 19 13 9 7 5 10 13 25 29 26 26 25 26 21 18 5 5 7 6 11 18 15 24 14 16 12 14 15 34 38 53 55 48 44
51 47 44 42 36 28 26 24 28 22 15 12 10 9 10 6 11 21 23 18 11 10 9 28 19 13 9 5 2 4 7 12 27 21 13 16 12 19 31 40 45 49 53 46 44
50 49 47 43 40 29 20 23 19 17 14 11 6 6 5 14 19 22 24 22 14 10 6 20 22 8 5 4 1 6 4 2 5 16 12 25 2 18 38 44 48 50 50 46 44
50 48 45 41 35 21 20 22 13 8 10 16 5 3 2 13 12 16 19 14 12 10 13 16 17 7 9 6 5 2 8 14 1 20 5 24 9 16 41 41 45 49 50 49 44
48 46 42 39 33 15 16 16 10 6 7 9 5 2 7 7 9 14 20 16 6 12 14 8 4 6 7 12 15 7 10 8 11 4 13 24 13 13 38 42 43 47 48 49 48
49 46 44 38 28 7 13 8 8 2 8 3 6 8 11 7 14 15 18 20 13 9 10 4 12 21 17 10 13 11 7 5 3 3 4 21 22 17 32 34 37 44 46 50 52
52 49 44 39 21 1 6 6 12 10 8 6 9 16 12 5 6 13 22 14 7 12 11 10 20 7 5 10 13 12 8 4 7 1 3 4 21 18 31 38 41 48 51 51 45
50 47 42 38 11 4 6 11 16 12 4 6 2 5 3 7 3 13 23 12 9 9 8 15 4 15 8 6 11 8 11 7 3 4 3 2 7 8 20 24 30 39 44 44 51
48 45 39 30 3 5 7 10 16 9 3 2 5 5 7 6 1 9 21 10 5 11 10 9 7 11 13 9 7 17 13 10 7 15 12 6 10 7 18 27 29 41 44 47 51
44 44 38 27 7 10 7 9 11 3 4 4 6 7 13 6 3 8 18 10 11 13 8 7 10 14 9 9 15 9 13 5 5 2 18 16 11 4 9 25 37 49 53 53 52
42 45 37 20 3 16 7 8 2 5 6 4 4 7 9 4 5 8 7 8 9 10 3 4 2 5 11 7 21 6 12 7 5 5 15 19 18 14 12 22 34 44 55 58 55
43 38 26 7 7 15 4 3 4 1 5 5 4 4 11 7 7 6 8 6 2 7 6 2 7 4 6 7 8 11 14 11 14 13 18 7 17 19 14 25 29 33 56 61 61
41 31 7 5 11 5 2 2 3 2 4 3 2 10 8 8 9 11 8 7 11 4 5 6 9 13 11 14 11 17 21 12 20 21 20 8 17 17 12 16 41 36 29 41 53
36 11 10 12 9 2 3 3 3 1 5 2 3 9 6 5 5 7 11 7 7 8 3 4 2 3 2 2 7 11 15 9 3 1 9 14 13 23 16 19 11 27 34 42 50
31 10 9 6 5 7 2 4 4 4 5 3 5 4 5 9 5 6 6 9 10 8 9 6 3 4 2 4 9 6 13 12 6 13 13 9 12 23 17 9 3 4 23 37 42
12 8 5 5 6 2 4 3 4 12 4 10 4 6 8 5 8 6 7 5 11 8 5 3 5 6 5 6 5 5 7 2 5 6 16 13 12 5 3 12 17 16 16 23 38
7 5 2 4 2 3 3 5 6 5 11 8 9 12 8 9 9 7 7 5 25 6 4 6 3 4 5 5 5 3 6 3 13 15 4 8 11 7 11 13 19 19 16 12 14
12 2 5 4 2 3 2 8 11 4 11 6 6 8 7 6 5 4 5 7 24 9 6 3 2 6 7 9 6 6 6 6 2 2 13 17 12 7 10 19 25 26 26 20 11
6 0 3 3 5 3 8 5 11 12 10 13 7 5 6 5 11 7 5 7 14 16 17 4 5 4 9 7 6 4 1 5 5 6 5 11 4 13 14 17 23 28 28 28 29
4 2 2 1 3 1 1 4 12 7 8 10 8 9 5 5 4 5 4 2 8 20 8 5 3 5 3 4 6 9 14 11 11 5 9 6 12 16 11 13 20 21 23 29 30
2 3 2 1 5 3 3 5 11 8 3 5 10 6 6 6 3 6 3 6 7 12 6 7 2 2 3 5 7 14 18 16 6 5 10 12 11 14 17 16 23 25 25 26 28
6 5 3 1 3 6 6 7 13 19 13 11 25 12 12 10 10 10 8 9 6 6 6 4 2 1 7 7 11 15 8 8 4 4 2 8 7 21 10 20 22 21 22 22 24
Wind_Direction_850mb
358 355 351 351 350 352 347 339 332 325 325 321 314 304 292 288 288 280 274 230 188 185 181 172 159 159 134 32 39 27 95 137 140 160 139 165 143 129 99 138 91 15 150 153 156
358 354 350 347 347 347 346 340 330 324 323 321 316 307 301 292 293 281 238 191 177 173 179 175 166 158 101 350 1 29 97 103 162 154 157 172 163 147 130 155 89 87 127 150 155
357 352 349 346 343 342 341 338 328 321 321 321 316 308 305 304 314 149 173 176 162 165 170 170 166 144 92 339 330 137 72 96 188 178 169 164 170 154 139 181 173 150 149 156 161
356 353 348 345 343 340 336 335 328 319 322 320 318 308 301 298 150 339 186 168 165 157 153 159 159 136 114 81 258 280 192 329 147 159 168 172 162 179 170 171 171 162 160 161 169
353 351 348 345 342 340 336 334 332 324 321 319 317 304 297 248 180 73 152 163 164 157 167 159 160 153 150 182 229 283 331 210 242 170 179 177 196 152 179 160 152 155 164 168 174
352 350 348 346 343 340 337 335 334 321 310 309 302 287 266 244 175 140 141 162 178 174 182 180 177 171 122 180 214 225 263 246 230 208 199 180 203 199 153 149 149 159 169 175 179
352 350 349 345 341 341 335 337 337 340 328 308 288 271 244 219 178 155 147 151 151 165 195 196 150 175 174 195 237 249 250 237 242 213 205 179 201 211 162 158 156 167 172 180 185
351 351 351 348 342 339 334 337 342 342 344 333 300 286 231 179 159 156 158 150 139 124 119 182 165 155 223 302 164 216 228 167 65 190 201 190 188 181 169 163 165 173 177 184 189
351 350 349 347 341 340 333 335 341 348 359 359 337 324 144 163 173 179 164 155 137 128 119 137 179 170 150 178 180 6 155 147 224 186 138 205 259 181 178 177 173 179 183 183 193
347 347 347 346 341 337 337 329 329 323 334 346 16 352 100 127 170 189 200 184 124 144 128 144 147 188 145 185 204 162 147 132 185 83 196 203 234 169 190 189 186 182 186 188 195
345 346 345 344 340 333 347 338 335 345 337 216 276 286 296 32 160 194 198 187 172 150 167 128 195 199 196 139 116 103 105 115 230 60 247 214 225 187 193 202 190 187 189 192 201
346 343 344 345 340 177 25 62 34 318 312 312 250 260 275 302 123 135 159 155 167 162 137 157 218 160 148 152 145 143 145 204 264 317 214 218 230 214 198 208 199 189 195 198 197
343 341 345 347 350 172 125 26 1 346 297 311 184 174 172 147 135 154 164 153 140 141 174 189 117 152 157 158 179 156 184 170 309 350 83 177 214 199 213 220 213 213 210 206 201
343 341 340 349 332 198 178 345 339 313 325 51 178 141 162 137 194 187 177 157 108 157 150 205 140 155 162 176 222 231 195 168 175 248 245 323 273 241 203 212 216 217 213 212 211
342 337 335 337 276 197 187 311 316 288 118 132 129 146 150 153 100 154 164 161 166 144 196 169 178 192 199 197 185 242 168 159 153 161 222 240 255 224 199 215 219 217 217 217 213
342 335 332 330 262 179 205 310 192 249 113 124 94 153 148 67 75 115 137 102 120 121 126 211 259 213 200 176 193 121 143 77 86 167 224 206 226 229 206 225 228 219 217 218 214
342 333 329 339 142 174 233 166 229 332 336 50 78 111 97 34 92 33 132 91 101 156 174 196 206 254 190 175 133 186 189 201 210 207 231 147 216 242 231 241 241 221 214 214 215
344 339 37 80 156 169 188 177 110 59 20 51 116 84 87 4 57 29 99 120 60 47 139 178 192 198 166 219 209 188 212 225 219 216 220 167 216 231 222 265 248 242 233 220 217
351 16 80 82 106 71 146 134 70 333 332 6 110 77 74 62 40 89 52 43 21 3 284 158 242 291 231 1 196 160 209 252 241 109 246 209 224 268 247 256 267 247 233 223 219
355 105 66 114 55 353 141 117 102 306 339 57 90 0 108 16 114 76 59 16 345 359 262 157 244 30 345 159 64 254 143 186 207 217 225 184 231 233 216 256 336 255 240 237 228
14 104 30 146 348 56 133 80 117 34 42 16 96 97 78 62 43 70 28 75 352 331 23 118 269 127 212 48 41 152 186 79 239 273 240 220 210 270 267 344 322 317 291 257 233
19 124 353 168 258 356 128 116 13 32 41 64 78 65 55 40 55 88 104 19 351 296 54 38 305 208 78 335 245 56 62 323 239 198 233 301 217 38 36 26 348 359 357 328 245
354 1 33 190 236 122 151 108 57 80 42 54 88 53 60 78 99 75 80 28 12 40 45 12 86 202 158 150 135 91 77 80 39 296 204 223 206 62 37 49 38 33 30 38 55
5 154 30 129 101 182 148 126 120 62 79 65 85 105 116 91 44 117 98 46 4 28 36 164 86 319 283 39 0 177 15 45 352 242 157 222 196 22 31 35 43 44 52 64 68
23 89 123 162 86 264 276 133 132 119 77 53 92 62 105 115 107 93 58 51 60 11 38 20 104 315 307 312 316 292 294 308 306 296 265 10 307 346 18 41 42 50 52 55 57
284 157 148 238 302 227 302 156 143 121 69 86 116 110 121 141 96 139 109 36 37 10 55 4 106 334 275 327 295 277 281 281 240 222 273 303 279 42 35 48 49 37 41 42 41
222 219 164 146 171 192 192 160 144 138 49 117 136 123 105 101 98 79 80 87 66 13 42 33 92 315 254 333 300 249 263 265 195 127 282 276 11 324 53 43 39 39 39 37 28